Weather observations for the past three days for
Warsaw, Warsaw Municipal Airport
Imperial (Metric)
Date Time (edt) Wind (mph) Vis. (mi.) Weather Sky Cond. Temperature (ºF) Relative Humidity Wind Chill (°F) Heat Index (°F) Pressure Precipitation (in)
Air Dwpt 6 hour altimeter (in) sea level (mb) 1 hr 3 hr 6 hr
Max. Min.
21 18:55 Calm 10.00 Partly Cloudy SCT048 75 62.1 64% 77 30.08 0.0
21 18:35 Calm 10.00 Partly Cloudy SCT048 77.9 58.5 51% 79 30.08 0.0
21 18:15 Calm 10.00 Fair CLR 78.8 57.7 49% 80 30.08 0.0
21 17:55 Calm 10.00 Fair CLR 78.6 56.7 47% 79 30.08 0.0
21 17:35 Calm 10.00 Fair CLR 78.1 57.9 50% 79 30.09 0.0
21 17:15 Calm 10.00 Fair CLR 77 59 54% 79 30.09 0.0
21 16:55 Calm 10.00 Fair CLR 77 59.9 56% 79 30.1 0.0
21 16:35 Calm 10.00 Fair CLR 78.8 59 51% 80 30.1 0.0
21 16:15 Calm 10.00 Fair CLR 77 57.6 51% 79 30.11 0.0
21 15:55 Calm 10.00 Fair CLR 77 57 50% 79 30.11 0.0
21 15:35 Calm 10.00 Fair CLR 77.9 57.4 49% 79 30.12 0.0
21 15:15 Calm 10.00 Fair CLR 77.2 57.6 51% 79 30.12 0.0
21 14:55 E 5 10.00 Fair CLR 77.2 58.3 52% 79 30.12 0.0
21 14:35 Calm 10.00 Fair CLR 77.5 58.1 51% 79 30.13 0.0
21 14:15 Calm 7.00 Fair CLR 77.5 57.6 50% 79 30.13 0.0
21 13:55 Calm 10.00 Fair CLR 77.2 58.1 52% 79 30.14 0.0
21 13:35 Calm 10.00 Fair CLR 76.1 57.2 52% 78 30.14 0.0
21 13:15 E 3 10.00 Fair CLR 76.5 57.7 52% 78 30.14 0.0
21 12:55 Calm 10.00 Fair CLR 75.7 55.4 49% 78 30.14 0.0
21 12:35 Calm 10.00 Fair CLR 75.6 54.7 48% 78 30.14 0.0
21 12:15 Calm 10.00 Fair CLR 75.2 55.6 51% 78 30.13 0.0
21 11:55 Calm 10.00 Fair CLR 75.4 56.3 52% 78 30.13 0.0
21 11:35 Calm 10.00 Fair CLR 75 56.3 52% 78 30.13 0.0
21 11:15 NE 3 10.00 Fair CLR 73.9 56.7 55% 30.13 0.0
21 10:55 Calm 10.00 Fair CLR 74.1 57.2 56% 30.13 0.0
21 10:35 Calm 10.00 Fair CLR 72.7 57.7 60% 30.13 0.0
21 10:15 Calm 10.00 Fair CLR 72.3 58.8 63% 30.13 0.0
21 09:55 Calm 10.00 Fair CLR 71.8 59 64% 30.14 0.0
21 09:35 Calm 10.00 Fair CLR 70.2 61.3 74% 30.14 0.0
21 09:15 Calm 10.00 Fair CLR 68.9 63.3 83% 30.14 0.0
21 08:55 Calm 7.00 Fair CLR 66.2 62.6 88% 30.14 0.0
21 08:35 Calm 5.00 Fog/Mist CLR 63.9 62.2 95% 30.14 0.0
21 08:15 Calm 3.00 Fog/Mist CLR 62.2 61.3 97% 30.14 0.0
21 07:55 Calm 4.00 Fog/Mist CLR 60.8 59.9 97% 30.13 0.0
21 07:35 Calm 3.00 Fog/Mist CLR 59.9 59.4 98% 30.13 0.0
21 07:15 Calm 3.00 Fog/Mist CLR 59 58.5 98% 30.13 0.0
21 06:55 Calm 4.00 Fog/Mist CLR 59 58.5 98% 30.13 0.0
21 06:35 Calm 1.50 Fog/Mist VV007 58.6 58.3 99% 30.12 0.0
21 06:15 Calm 3.00 Fog/Mist CLR 58.3 57.7 98% 30.12 0.0
21 05:55 Calm 3.00 Fog/Mist CLR 58.6 58.1 98% 30.13 0.0
21 05:35 Calm 4.00 Fog/Mist CLR 58.8 58.3 98% 30.13 0.0
21 05:15 Calm 3.00 Fog/Mist CLR 59.5 59 98% 30.12 0.0
21 04:55 Calm 4.00 Fog/Mist CLR 58.8 58.3 98% 30.12 0.0
21 04:35 Calm 4.00 Fog/Mist CLR 59 58.3 97% 30.12 0.0
21 04:15 Calm 2.50 Fog/Mist CLR 59.2 58.8 99% 30.12 0.0
21 03:55 Calm 4.00 Fog/Mist CLR 59.2 58.6 98% 30.12 0.0
21 03:35 Calm 7.00 Fair CLR 60.1 59.4 97% 30.12 0.0
21 03:15 Calm 5.00 Fog/Mist CLR 60.1 59.5 98% 30.12 0.0
21 02:55 Calm 5.00 Fog/Mist CLR 59.9 59.2 97% 30.12 0.0
21 02:35 Calm 7.00 Fair CLR 60.3 59.4 97% 30.13 0.0
21 02:15 Calm 7.00 Fair CLR 60.4 59.5 97% 30.13 0.0
21 01:55 Calm 7.00 Fair CLR 61 59.9 96% 30.13 0.0
21 01:35 Calm 7.00 Fair CLR 60.8 59.9 97% 30.12 0.0
21 01:15 Calm 10.00 Fair CLR 61.7 59.9 94% 30.12 0.0
21 00:55 Calm 10.00 Fair CLR 61.5 59.9 94% 30.13 0.0
21 00:35 Calm 10.00 Fair CLR 61 59.4 94% 30.13 0.0
21 00:15 Calm 10.00 Fair CLR 62.2 60.1 93% 30.12 0.0
20 23:55 Calm 10.00 Fair CLR 62.8 60.3 92% 30.13 0.0
20 23:35 Calm 10.00 Fair CLR 63.5 60.1 89% 30.12 0.0
20 23:15 Calm 10.00 Fair CLR 63.5 60.6 90% 30.13 0.0
20 22:55 Calm 10.00 Fair CLR 64.2 60.8 89% 30.12 0.0
20 22:35 Calm 10.00 Fair CLR 64.8 60.8 87% 30.12 0.0
20 22:15 Calm 10.00 Fair CLR 66.9 59.9 78% 30.12 0.0
20 21:55 Calm 10.00 Fair CLR 67.1 60.8 80% 30.12 0.0
20 21:35 Calm 10.00 Fair CLR 68.2 60.6 77% 30.11 0.0
20 21:15 Calm 10.00 Fair CLR 69.4 60.6 74% 30.11 0.0
20 20:55 Calm 10.00 Fair CLR 69.8 60.8 73% 30.11 0.0
20 20:35 Calm 10.00 Fair CLR 73.4 57.7 58% 30.1 0.0
20 20:15 NW 3 10.00 Fair CLR 73.9 58.5 59% 30.1 0.0
20 19:55 Calm 10.00 Fair CLR 75.2 57.6 54% 78 30.1 0.0
20 19:35 NW 3 10.00 Fair CLR 75.7 56.7 52% 78 30.1 0.0
20 19:15 NW 3 10.00 Fair CLR 76.1 57.2 52% 78 30.1 0.0
20 18:55 NW 3 10.00 Fair CLR 75.4 56.1 51% 78 30.11 0.0
20 18:35 NW 3 10.00 Fair CLR 75.2 56.7 53% 78 30.11 0.0
20 18:15 Calm 10.00 Partly Cloudy SCT060 76.5 54.5 47% 78 30.11 0.0
20 17:55 NW 3 10.00 Partly Cloudy SCT050 77.4 56.1 48% 79 30.11 0.0
20 17:35 NW 5 10.00 Mostly Cloudy BKN050 78.3 57 48% 79 30.11 0.0
20 17:15 E 3 10.00 Overcast OVC050 77.5 56.7 49% 79 30.12 0.0
20 16:55 Calm 10.00 Overcast OVC050 75.6 57.9 54% 78 30.12 0.0
20 16:35 N 5 10.00 Mostly Cloudy BKN050 76.5 55.6 49% 78 30.12 0.0
20 16:15 Calm 10.00 Overcast OVC050 77.2 57.6 51% 79 30.12 0.0
20 15:55 NE 5 10.00 Overcast OVC050 76.8 57.4 51% 79 30.13 0.0
20 15:15 Calm 10.00 Partly Cloudy SCT050 76.5 55.2 48% 78 30.14 0.0
20 14:55 N 3 10.00 Mostly Cloudy BKN050 75.4 57.7 54% 78 30.14 0.0
20 14:35 S 3 10.00 Partly Cloudy SCT050 76.5 55.6 49% 78 30.14 0.0
20 14:15 Calm 10.00 Mostly Cloudy SCT046 BKN050 75.7 56.7 52% 78 30.14 0.0
20 13:55 Calm 10.00 Partly Cloudy SCT046 74.3 55.8 53% 30.15 0.0
20 13:35 NE 5 10.00 Partly Cloudy SCT046 74.5 55.6 52% 30.15 0.0
20 13:15 N 3 10.00 Partly Cloudy SCT046 SCT050 73.9 56.5 55% 30.15 0.0
20 12:55 N 5 10.00 Mostly Cloudy BKN048 BKN050 73.4 56.3 55% 30.15 0.0
20 12:35 NE 5 10.00 Partly Cloudy SCT048 SCT055 74.3 56.1 53% 30.16 0.0
20 12:15 NE 5 10.00 Mostly Cloudy BKN046 BKN050 74.3 55.8 53% 30.16 0.0
20 11:55 NE 6 10.00 Partly Cloudy SCT046 75.4 56.8 53% 78 30.16 0.0
20 11:35 N 7 10.00 Fair CLR 74.7 56.7 54% 30.16 0.0
20 11:15 N 3 10.00 Fair CLR 73.8 57.4 57% 30.16 0.0
20 10:55 NW 3 10.00 Fair CLR 73.4 57.6 58% 30.16 0.0
20 10:35 N 3 10.00 Fair CLR 72.7 58.3 61% 30.16 0.0
20 10:15 Calm 10.00 Fair CLR 71.6 58.8 64% 30.16 0.0
20 09:55 Calm 10.00 Fair CLR 70.3 59.4 68% 30.16 0.0
20 09:35 Calm 10.00 Fair CLR 68.9 60.6 75% 30.16 0.0
20 09:15 Calm 10.00 Fair CLR 67.6 59.7 76% 30.16 0.0
20 08:55 Calm 10.00 Fair CLR 66.6 59.5 78% 30.16 0.0
20 08:35 Calm 10.00 Fair CLR 65.1 59.4 82% 30.16 0.0
20 08:15 Calm 10.00 Fair CLR 63 58.5 85% 30.15 0.0
20 07:55 Calm 10.00 Fair CLR 60.8 59 94% 30.14 0.0
20 07:35 Calm 10.00 Fair CLR 58.8 58.5 99% 30.14 0.0
20 07:15 Calm 7.00 Fair CLR 57.2 56.7 98% 30.14 0.0
20 06:55 Calm 5.00 Fog/Mist CLR 56.8 56.5 99% 30.13 0.0
20 06:35 Calm 2.50 Fog/Mist CLR 56.3 55.8 98% 30.13 0.0
20 06:15 Calm 5.00 Fog/Mist CLR 56.7 56.3 99% 30.13 0.0
20 05:35 Calm 2.50 Fog/Mist CLR 57 56.5 98% 30.12 0.0
20 05:15 Calm 0.75 Fog/Mist VV005 57.6 57.2 99% 30.13 0.0
20 04:55 Calm 7.00 Fair CLR 58.1 57.4 97% 30.13 0.0
20 04:35 Calm 10.00 Partly Cloudy SCT050 58.5 57.6 97% 30.13 0.0
20 04:15 Calm 10.00 Partly Cloudy SCT050 59.4 58.1 96% 30.13 0.0
20 03:55 Calm 10.00 Partly Cloudy SCT050 59.9 58.1 94% 30.14 0.0
20 03:35 Calm 10.00 Mostly Cloudy BKN050 59.9 58.1 94% 30.14 0.0
20 03:15 Calm 10.00 Mostly Cloudy BKN050 60.1 58.1 93% 30.14 0.0
20 02:55 Calm 10.00 Partly Cloudy SCT050 60.3 58.1 93% 30.14 0.0
20 02:35 Calm 10.00 Mostly Cloudy BKN050 59.9 57.9 93% 30.14 0.0
20 02:15 Calm 10.00 Overcast OVC050 60.1 58.1 93% 30.15 0.0
20 01:55 Calm 10.00 Mostly Cloudy BKN050 59.9 58.1 94% 30.15 0.0
20 01:35 Calm 10.00 Partly Cloudy SCT050 59.2 57.9 96% 30.14 0.0
20 01:15 Calm 10.00 Fair CLR 59.4 57.7 94% 30.15 0.0
20 00:55 Calm 10.00 Fair CLR 60.1 57.4 91% 30.15 0.0
20 00:35 Calm 10.00 Fair CLR 59.9 58.3 94% 30.14 0.0
20 00:15 Calm 10.00 Fair CLR 60.6 58.1 91% 30.14 0.0
19 23:55 Calm 10.00 Fair CLR 60.8 58.1 91% 30.15 0.0
19 23:35 Calm 10.00 Fair CLR 60.8 58.5 92% 30.14 0.0
19 23:15 Calm 10.00 Fair CLR 61.3 58.3 90% 30.14 0.0
19 22:55 Calm 10.00 Fair CLR 62.1 58.3 88% 30.14 0.0
19 22:35 Calm 10.00 Fair CLR 63.5 58.1 83% 30.14 0.0
19 22:15 Calm 10.00 Fair CLR 63.5 58.5 84% 30.14 0.0
19 21:55 Calm 10.00 Fair CLR 64.2 59 83% 30.13 0.0
19 21:35 Calm 10.00 Fair CLR 65.3 59.2 81% 30.13 0.0
19 21:15 Calm 10.00 Partly Cloudy SCT060 67.3 59.2 75% 30.14 0.0
19 20:55 Calm 10.00 Partly Cloudy SCT060 70 58.5 67% 30.14 0.0
19 20:15 Calm 10.00 Fair CLR 73 57.4 58% 30.14 0.0
19 19:55 Calm 10.00 Fair CLR 73.8 55.2 52% 30.14 0.0
19 19:35 Calm 10.00 Fair CLR 74.8 52.5 46% 30.14 0.0
19 19:15 Calm 10.00 Fair CLR 75.2 55 50% 78 30.14 0.0
19 18:55 N 5 10.00 Fair CLR 75.4 53.8 47% 78 30.14 0.0
19 18:35 Calm 10.00 Partly Cloudy SCT050 75.2 53.6 47% 78 30.14 0.0
19 18:15 NE 5 10.00 Partly Cloudy SCT050 75.4 54.7 49% 78 30.14 0.0
19 17:55 NE 3 10.00 Partly Cloudy SCT050 75.7 54.5 48% 78 30.14 0.0
19 17:35 NE 5 10.00 Mostly Cloudy BKN050 75.7 54.7 48% 78 30.14 0.0
19 17:15 E 3 10.00 Mostly Cloudy BKN050 75.9 55.2 49% 78 30.15 0.0
19 16:55 NW 3 10.00 Fair CLR 75.7 54.5 48% 78 30.16 0.0
19 16:35 NW 3 10.00 Fair CLR 73.8 54.1 50% 30.16 0.0
19 16:15 N 5 10.00 Partly Cloudy SCT050 75.4 54.9 49% 78 30.16 0.0
19 15:55 NE 7 10.00 Mostly Cloudy BKN050 75.9 55.2 49% 78 30.17 0.0
19 15:35 W 5 10.00 Fair CLR 76.1 55 48% 78 30.17 0.0
19 15:15 Calm 10.00 Partly Cloudy SCT050 73.6 53.1 49% 30.18 0.0
19 14:55 Calm 10.00 Mostly Cloudy BKN050 72.7 52.9 50% 30.19 0.0
19 14:35 Calm 10.00 Overcast OVC050 72.7 54 52% 30.2 0.0
19 14:15 NE 5 10.00 Overcast OVC050 74.5 55.9 53% 30.2 0.0
19 13:55 SE 3 10.00 Partly Cloudy SCT050 75.4 55.2 50% 78 30.21 0.0
19 13:35 Calm 10.00 Partly Cloudy SCT050 73 52.9 49% 30.21 0.0
19 13:15 N 5 10.00 Mostly Cloudy BKN050 72.9 53.8 51% 30.21 0.0
19 12:35 Calm 10.00 Mostly Cloudy BKN050 71.8 53.2 52% 30.22 0.0
19 12:15 Calm 10.00 Partly Cloudy SCT050 71.1 52.2 51% 30.22 0.0
19 11:55 N 3 10.00 Partly Cloudy SCT050 72.5 54.5 53% 30.22 0.0
19 11:35 Calm 10.00 Fair CLR 70.7 51.8 51% 30.22 0.0
19 11:15 Calm 10.00 Fair CLR 71.6 53.4 53% 30.22 0.0
19 10:55 Calm 10.00 Fair CLR 70.7 53.4 54% 30.22 0.0
19 10:35 Calm 10.00 Fair CLR 70 52.9 55% 30.22 0.0
19 10:15 Calm 10.00 Fair CLR 69.6 55.9 62% 30.23 0.0
19 09:55 Calm 10.00 Fair CLR 68.2 56.3 66% 30.23 0.0
19 09:35 Calm 10.00 Fair CLR 66.9 57.6 72% 30.24 0.0
19 09:15 Calm 10.00 Fair CLR 65.5 57.4 75% 30.24 0.0
19 08:55 SE 3 10.00 Fair CLR 63.7 56.8 79% 30.24 0.0
19 08:35 Calm 10.00 Fair CLR 62.6 57.2 83% 30.24 0.0
19 08:15 Calm 10.00 Fair CLR 60.6 57.7 90% 30.23 0.0
19 07:55 Calm 10.00 Fair CLR 58.3 57.2 96% 30.23 0.0
19 07:35 Calm 10.00 Fair CLR 56.3 55.9 99% 30.22 0.0
19 07:15 Calm 10.00 Fair CLR 54.7 54.5 99% 30.21 0.0
19 06:55 Calm 7.00 Fair CLR 53.6 53.4 99% 30.21 0.0
19 06:35 Calm 7.00 Fair CLR 53.6 53.2 99% 30.21 0.0
19 06:15 Calm 5.00 Fog/Mist CLR 53.8 53.4 99% 30.2 0.0
19 05:55 Calm 5.00 Fog/Mist CLR 54.3 53.8 98% 30.2 0.0
19 05:35 Calm 7.00 Fair CLR 53.6 53.2 99% 30.2 0.0
19 05:15 Calm 7.00 Fair CLR 54.9 54.5 99% 30.19 0.0
19 04:55 Calm 7.00 Fair CLR 54.5 54 98% 30.19 0.0
19 04:35 Calm 3.00 Fog/Mist CLR 55.2 54.7 98% 30.19 0.0
19 04:15 Calm 10.00 Fair CLR 55.8 55.4 99% 30.19 0.0
19 03:55 Calm 7.00 Fair CLR 55.6 55 98% 30.19 0.0
19 03:35 Calm 10.00 Fair CLR 55.8 55.4 99% 30.19 0.0
19 03:15 Calm 10.00 Fair CLR 55.9 55.4 98% 30.19 0.0
19 02:55 Calm 10.00 Fair CLR 56.3 55.6 97% 30.19 0.0
19 02:35 Calm 10.00 Fair CLR 56.5 55.8 97% 30.2 0.0
19 02:15 Calm 10.00 Fair CLR 56.5 55.6 97% 30.2 0.0
19 01:55 Calm 10.00 Fair CLR 56.8 56.1 97% 30.2 0.0
19 01:35 Calm 10.00 Fair CLR 56.7 55.6 96% 30.2 0.0
19 01:15 Calm 10.00 Fair CLR 57 55.8 96% 30.2 0.0
19 00:55 Calm 10.00 Fair CLR 57.7 56.3 95% 30.2 0.0
19 00:35 Calm 10.00 Fair CLR 58.1 56.1 93% 30.2 0.0
19 00:15 Calm 10.00 Fair CLR 59.9 55.9 87% 30.19 0.0
18 23:55 Calm 10.00 Fair CLR 60.3 55.9 86% 30.19 0.0
18 23:35 Calm 10.00 Fair CLR 61 55.9 84% 30.19 0.0
18 23:15 Calm 10.00 Fair CLR 61.2 55.9 83% 30.18 0.0
18 22:55 Calm 10.00 Fair CLR 61.9 56.3 82% 30.19 0.0
18 22:35 N 3 10.00 Fair CLR 62.6 56.3 80% 30.18 0.0
18 22:15 NW 6 10.00 Fair CLR 63.5 56.5 78% 30.17 0.0
18 21:55 Calm 10.00 Fair CLR 64 56.3 76% 30.16 0.0
18 21:35 NW 3 10.00 Fair CLR 64.9 56.1 73% 30.16 0.0
18 21:15 Calm 10.00 Fair CLR 66.6 55.8 68% 30.16 0.0
18 20:55 Calm 10.00 Fair CLR 67.3 55.8 67% 30.16 0.0
18 20:35 Calm 10.00 Fair CLR 67.5 55.9 67% 30.16 0.0
18 20:15 Calm 10.00 Fair CLR 67.3 55.8 67% 30.16 0.0
18 19:55 N 3 10.00 Fair CLR 67.8 55 64% 30.16 0.0
18 19:35 N 3 10.00 Partly Cloudy SCT050 70.3 54.3 57% 30.16 0.0
Date Time (edt) Wind (mph) Vis. (mi.) Weather Sky Cond. Air Dwpt Max. Min. Relative Humidity Wind Chill (°F) Heat Index (°F) altimeter (in) sea level (mb) 1 hr 3 hr 6 hr
6 hour
Temperature (ºF) Pressure Precipitation (in)